Location: Amsterdam
(30.7274°N, 84.4357°W)
Time: 05:35:55
(UTC+00:00)

Explorer 11/Cluster Stage 4 - Pass Details

Date: 19 February 2026
Orbit: 463 x 1175 km, 28.8° (Epoch: 13 March)

Event Time Altitude Azimuth Distance (km) Brightness Sun altitude
Rises 17:41:10 0° 243° (WSW) 3,086 9.8 48.1°
Reaches altitude 10° 17:43:54 10° 236° (WSW) 2,045 9.2 48.1°
Maximum altitude 17:48:17 41° 167° (SSE) 833 9.1 48.2°
Drops below altitude 10° 17:52:01 10° 96° (E) 1,735 8.5 48.2°
Sets 17:54:10 0° 89° (E) 2,560 9.2 48.2°
